TimeMDT,TemperatureF,Dew PointF,Humidity,Sea Level PressureIn,VisibilityMPH,Wind Direction,Wind SpeedMPH,Gust SpeedMPH,PrecipitationIn,Events,Conditions,WindDirDegrees,DateUTC
12:55 AM,35.6,13.1,40,30.21,10.0,NE,3.5,-,N/A,,Clear,50,2012-10-07 06:55:00
1:55 AM,33.3,13.5,44,30.21,10.0,Calm,Calm,-,N/A,,Clear,0,2012-10-07 07:55:00
2:55 AM,29.5,13.3,51,30.23,10.0,East,4.6,-,N/A,,Clear,100,2012-10-07 08:55:00
3:55 AM,27.7,14.2,57,30.22,10.0,East,5.8,-,N/A,,Clear,100,2012-10-07 09:55:00
4:55 AM,30.4,13.8,50,30.22,10.0,East,4.6,-,N/A,,Clear,100,2012-10-07 10:55:00
5:55 AM,28.0,13.1,54,30.22,10.0,Calm,Calm,-,N/A,,Clear,0,2012-10-07 11:55:00
6:55 AM,26.8,14.7,60,30.22,10.0,East,4.6,-,N/A,,Clear,90,2012-10-07 12:55:00
7:55 AM,25.0,14.2,64,30.26,10.0,East,6.9,-,N/A,,Clear,90,2012-10-07 13:55:00
8:55 AM,31.3,14.0,49,30.26,10.0,East,5.8,-,N/A,,Clear,90,2012-10-07 14:55:00
9:55 AM,39.7,15.6,38,30.26,10.0,ESE,5.8,-,N/A,,Clear,110,2012-10-07 15:55:00
10:55 AM,45.9,13.8,28,30.26,10.0,ESE,9.2,-,N/A,,Clear,120,2012-10-07 16:55:00
11:55 AM,50.5,13.6,23,30.24,10.0,East,11.5,-,N/A,,Clear,100,2012-10-07 17:55:00
12:55 PM,54.1,12.2,19,30.21,10.0,ESE,5.8,-,N/A,,Clear,110,2012-10-07 18:55:00
1:55 PM,57.2,14.9,19,30.18,10.0,ESE,3.5,-,N/A,,Clear,110,2012-10-07 19:55:00
2:55 PM,60.1,14.5,17,30.14,10.0,Variable,3.5,-,N/A,,Clear,0,2012-10-07 20:55:00
3:55 PM,62.6,14.2,15,30.12,10.0,Calm,Calm,-,N/A,,Clear,0,2012-10-07 21:55:00
4:55 PM,64.6,12.9,13,30.07,10.0,Calm,Calm,-,N/A,,Clear,0,2012-10-07 22:55:00
5:55 PM,64.8,13.1,13,30.06,10.0,Calm,Calm,-,N/A,,Clear,0,2012-10-07 23:55:00
6:55 PM,60.1,19.6,21,30.05,3.0,West,6.9,-,N/A,,Haze,260,2012-10-08 00:55:00
7:43 PM,50.0,15.8,26,30.08,6.0,West,9.2,-,N/A,,Haze,270,2012-10-08 01:43:00
7:55 PM,50.4,16.2,26,30.08,7.0,West,8.1,-,N/A,,Clear,270,2012-10-08 01:55:00
8:55 PM,49.6,13.5,24,30.07,5.0,West,6.9,-,N/A,,Haze,270,2012-10-08 02:55:00
9:08 PM,46.4,15.8,29,30.08,9.0,NNW,3.5,-,N/A,,Clear,330,2012-10-08 03:08:00
9:55 PM,45.7,12.0,26,30.07,9.0,NNW,4.6,-,N/A,,Clear,340,2012-10-08 03:55:00
10:02 PM,44.6,12.2,27,30.06,9.0,NNW,4.6,-,N/A,,Clear,340,2012-10-08 04:02:00
10:55 PM,45.3,12.6,27,30.06,10.0,Calm,Calm,-,N/A,,Clear,0,2012-10-08 04:55:00
11:55 PM,37.0,9.7,32,30.06,10.0,Calm,Calm,-,N/A,,Clear,0,2012-10-08 05:55:00